Home > Weather > Kolonia > Past weeks

Flag for Micronesia Weather for the Past 2 Weeks in Kolonia, Pohnpei, Micronesia

Now
84 °F

Broken clouds.


Feels Like: 92 °F
Forecast: 80 / 85 °F
Wind: 9 mph from Northeast

Location: Pohnpei

Current Time: Feb 8, 2016 at 5:34:19 PM

Latest Report: Feb 8, 2016 at 4:58 PM


Visibility: 15 mi

Pressure: 29.83 "Hg

Humidity: 72%

Dew point: 74 °F

Location of KoloniaLocation

Historic Weather in Kolonia — Graph

°F

Kolonia Temperature Yesterday

Maximum temperature yesterday: 86 °F (at 11:50 AM)
Minimum temperature yesterday: 78 °F (at 4:51 AM)
Average temperature yesterday: 82 °F

High & Low Weather Summary for the Past Weeks

 TemperatureHumidityPressure
High87 °F (Feb 2, 12:51 PM)96% (Feb 3, 10:52 PM)29.98 "Hg (Feb 3, 10:52 PM)
Low76 °F (Feb 4, 3:52 AM)62% (Jan 29, 12:51 PM)29.76 "Hg (Feb 5, 2:51 PM)
Average82 °F77%29.87 "Hg
* Reported Jan 24 3:55 PM — Feb 8 3:53 PM, Kolonia, Weather by CustomWeather, © 2016

Note: Actual official high and low records may vary slightly from our data, if they occured in-between our weather recording intervals... More about our weather records

Advertising

Kolonia Weather History for the Previous 24 Hours

 ConditionsComfort  
Time TempWeatherWind HumidityBarometerVisibility
3:53 PM
Mon, Feb 8
85 °FBroken clouds.6 mph71%29.83 "Hg15 mi
2:53 PM84 °FBroken clouds.7 mph73%29.84 "Hg15 mi
1:52 PM85 °FBroken clouds.6 mph74%29.86 "Hg15 mi
12:52 PM85 °FBroken clouds.10 mph70%29.88 "Hg15 mi
11:52 AM86 °FBroken clouds.5 mph71%29.91 "Hg15 mi
10:53 AM85 °FBroken clouds.8 mph70%29.94 "Hg15 mi
9:52 AM84 °FBroken clouds.7 mph69%29.95 "Hg15 mi
8:51 AM83 °FBroken clouds.6 mph72%29.94 "Hg15 mi
7:52 AM81 °FCloudy.7 mph75%29.91 "Hg15 mi
6:52 AM81 °FCloudy.5 mph88%29.90 "Hg15 mi
5:50 AM80 °FOvercast.5 mph75%29.88 "Hg15 mi
4:51 AM81 °FPartly cloudy.6 mph92%29.86 "Hg15 mi
3:53 AM80 °FPartly cloudy.6 mph79%29.85 "Hg15 mi
2:53 AM81 °FOvercast.6 mph76%29.85 "Hg15 mi
1:52 AM81 °FOvercast.8 mph76%29.88 "Hg15 mi
12:51 AM81 °FOvercast.8 mph83%29.90 "Hg15 mi
11:50 PM
Sun, Feb 7
82 °FMostly cloudy.7 mph72%29.91 "Hg15 mi
10:53 PM82 °FMostly cloudy.7 mph70%29.92 "Hg15 mi
9:51 PM82 °FMostly cloudy.9 mph73%29.91 "Hg15 mi
8:54 PM82 °FMostly cloudy.8 mph74%29.90 "Hg15 mi
7:53 PM82 °FMostly cloudy.10 mph72%29.88 "Hg15 mi
6:53 PM82 °FMostly cloudy.8 mph74%29.85 "Hg15 mi
5:53 PM84 °FCloudy.9 mph67%29.84 "Hg15 mi
Weather by CustomWeather, © 2016

See weather overviewHow to use our weather pages